When you browse on this site, cookies collect data to enhance your experience and personalize the content and advertising you see.
Visit our Privacy Policy to learn more. By continuing to use the site, you agree to this use of cookies and data.
  • In Spain
  • List of Countries
  • For 7 days
  • Water Temperature
  • Weather Map
  • Weather Widgets
  • user-avatar
    Login

    Hourly Weather Korçe

    Today, 7 December, Saturday

    Time Temperature Precipitation Wind Pressure Humidity
    00:00 +7°C° 0.7 mm 2 mps 669 mmHg 97%
    01:00 +7°C° 0.7 mm 2 mps 668 mmHg 97%
    02:00 +7°C° 0.7 mm 2 mps 668 mmHg 97%
    03:00 +7°C° 0.7 mm 2 mps 668 mmHg 97%
    04:00 +7°C° 0.7 mm 2 mps 667 mmHg 98%
    05:00 +7°C° 0.3 mm 2 mps 667 mmHg 98%
    06:00 +7°C° 0.3 mm 2 mps 667 mmHg 98%
    07:00 +7°C° 0.3 mm 2 mps 667 mmHg 98%
    08:00 +8°C° 0.4 mm 2 mps 667 mmHg 95%
    09:00 +8°C° 0.4 mm 2 mps 668 mmHg 92%
    10:00 +9°C° 0.4 mm 2 mps 668 mmHg 89%
    11:00 +9°C° 0.3 mm 2 mps 668 mmHg 84%
    12:00 +10°C° 0.3 mm 2 mps 667 mmHg 78%
    13:00 +10°C° 0.3 mm 2 mps 667 mmHg 72%
    14:00 +9°C° 0.1 mm 2 mps 667 mmHg 78%
    15:00 +8°C° 0.1 mm 2 mps 667 mmHg 83%
    16:00 +8°C° 0.1 mm 1 mps 667 mmHg 88%
    17:00 +8°C° 0 mm 1 mps 667 mmHg 90%
    18:00 +7°C° 0 mm 1 mps 667 mmHg 92%
    19:00 +6°C° 0 mm 1 mps 667 mmHg 95%
    20:00 +6°C° 0 mm 1 mps 667 mmHg 94%
    21:00 +6°C° 0 mm 1 mps 667 mmHg 94%
    22:00 +6°C° 0 mm 1 mps 667 mmHg 94%
    23:00 +6°C° 0 mm 1 mps 667 mmHg 93%

    Tomorrow, 8 December, Sunday

    Time Temperature Precipitation Wind Pressure Humidity
    00:00 +5°C° 0 mm 1 mps 667 mmHg 93%
    01:00 +5°C° 0 mm 1 mps 667 mmHg 93%
    02:00 +5°C° 0 mm 1 mps 667 mmHg 92%
    03:00 +5°C° 0 mm 1 mps 666 mmHg 91%
    04:00 +5°C° 0 mm 1 mps 666 mmHg 90%
    05:00 +5°C° 0 mm 1 mps 666 mmHg 90%
    06:00 +4°C° 0 mm 1 mps 666 mmHg 89%
    07:00 +4°C° 0 mm 1 mps 667 mmHg 88%
    08:00 +6°C° 0 mm 1 mps 667 mmHg 83%
    09:00 +7°C° 0 mm 1 mps 668 mmHg 78%
    10:00 +9°C° 0 mm 1 mps 668 mmHg 73%
    11:00 +8°C° 0 mm 2 mps 668 mmHg 71%
    12:00 +9°C° 0 mm 2 mps 668 mmHg 68%
    13:00 +9°C° 0 mm 2 mps 668 mmHg 66%
    14:00 +8°C° 0 mm 2 mps 667 mmHg 71%
    15:00 +7°C° 0 mm 2 mps 667 mmHg 77%
    16:00 +7°C° 0 mm 1 mps 667 mmHg 83%
    17:00 +7°C° 0 mm 1 mps 667 mmHg 85%
    18:00 +6°C° 0 mm 1 mps 667 mmHg 87%
    19:00 +5°C° 0 mm 1 mps 667 mmHg 90%
    20:00 +4°C° 0 mm 0 mps 667 mmHg 89%
    21:00 +4°C° 0 mm 0 mps 666 mmHg 87%
    22:00 +3°C° 0 mm 0 mps 666 mmHg 86%
    23:00 +3°C° 0 mm 0 mps 666 mmHg 85%

    Day after tomorrow, 9 December, Monday

    Time Temperature Precipitation Wind Pressure Humidity
    00:00 +4°C° 0 mm 1 mps 666 mmHg 85%
    01:00 +4°C° 0 mm 1 mps 666 mmHg 84%
    02:00 +4°C° 0 mm 1 mps 665 mmHg 83%
    03:00 +4°C° 0 mm 1 mps 665 mmHg 83%
    04:00 +3°C° 0 mm 1 mps 664 mmHg 82%
    05:00 +3°C° 0 mm 1 mps 664 mmHg 82%
    06:00 +3°C° 0 mm 1 mps 664 mmHg 82%
    07:00 +3°C° 0 mm 1 mps 664 mmHg 82%
    08:00 +5°C° 0 mm 1 mps 665 mmHg 78%
    09:00 +6°C° 0 mm 1 mps 665 mmHg 73%
    10:00 +8°C° 0 mm 1 mps 665 mmHg 69%
    11:00 +9°C° 0 mm 1 mps 665 mmHg 67%
    12:00 +8°C° 0 mm 2 mps 664 mmHg 66%
    13:00 +9°C° 0 mm 2 mps 664 mmHg 64%
    14:00 +8°C° 0 mm 2 mps 663 mmHg 71%
    15:00 +8°C° 0 mm 1 mps 663 mmHg 77%
    16:00 +6°C° 0 mm 1 mps 662 mmHg 83%
    17:00 +6°C° 0 mm 1 mps 662 mmHg 87%
    18:00 +4°C° 0 mm 2 mps 662 mmHg 90%
    19:00 +4°C° 0 mm 2 mps 662 mmHg 93%
    20:00 +4°C° 0 mm 2 mps 661 mmHg 94%
    21:00 +3°C° 0 mm 2 mps 661 mmHg 94%
    22:00 +3°C° 0 mm 2 mps 661 mmHg 95%
    23:00 +4°C° 0 mm 2 mps 661 mmHg 95%

    10 December, Tuesday

    Time Temperature Precipitation Wind Pressure Humidity
    00:00 +4°C° 0 mm 2 mps 661 mmHg 95%
    01:00 +4°C° 0 mm 2 mps 660 mmHg 94%
    02:00 +4°C° 0 mm 2 mps 660 mmHg 95%
    03:00 +4°C° 0 mm 2 mps 660 mmHg 95%
    04:00 +3°C° 0 mm 2 mps 659 mmHg 95%
    05:00 +4°C° 0.1 mm 2 mps 659 mmHg 95%
    06:00 +4°C° 0.1 mm 2 mps 659 mmHg 94%
    07:00 +5°C° 0.1 mm 1 mps 659 mmHg 94%
    08:00 +4°C° 0.8 mm 2 mps 659 mmHg 91%
    09:00 +5°C° 0.8 mm 2 mps 659 mmHg 88%
    10:00 +5°C° 0.8 mm 2 mps 659 mmHg 86%
    11:00 +5°C° 0.8 mm 2 mps 659 mmHg 85%
    12:00 +6°C° 0.8 mm 1 mps 658 mmHg 85%
    13:00 +6°C° 0.8 mm 1 mps 657 mmHg 85%
    14:00 +6°C° 0.6 mm 1 mps 657 mmHg 87%
    15:00 +5°C° 0.6 mm 1 mps 657 mmHg 89%
    16:00 +5°C° 0.6 mm 1 mps 656 mmHg 92%
    17:00 +5°C° 0.9 mm 1 mps 656 mmHg 92%
    18:00 +5°C° 0.9 mm 1 mps 656 mmHg 93%
    19:00 +5°C° 0.9 mm 1 mps 656 mmHg 94%
    20:00 +4°C° 1.5 mm 2 mps 656 mmHg 94%
    21:00 +4°C° 1.5 mm 2 mps 656 mmHg 94%
    22:00 +3°C° 1.5 mm 2 mps 656 mmHg 94%
    23:00 +3°C° 1.2 mm 2 mps 656 mmHg 94%

    11 December, Wednesday

    Time Temperature Precipitation Wind Pressure Humidity
    00:00 +3°C° 1.2 mm 2 mps 656 mmHg 94%
    01:00 +2°C° 1.2 mm 2 mps 656 mmHg 95%
    02:00 +2°C° 0.3 mm 2 mps 656 mmHg 94%
    03:00 +2°C° 0.3 mm 2 mps 657 mmHg 94%
    04:00 +2°C° 0.3 mm 2 mps 657 mmHg 94%
    05:00 +1°C° 0.1 mm 2 mps 657 mmHg 93%
    06:00 +1°C° 0.1 mm 2 mps 657 mmHg 92%
    07:00 +1°C° 0.1 mm 2 mps 658 mmHg 91%
    08:00 +1°C° 0 mm 2 mps 658 mmHg 86%
    09:00 +2°C° 0 mm 2 mps 659 mmHg 82%
    10:00 +2°C° 0 mm 3 mps 659 mmHg 78%
    11:00 +2°C° 0 mm 3 mps 659 mmHg 77%
    12:00 +3°C° 0 mm 3 mps 659 mmHg 76%
    13:00 +3°C° 0 mm 3 mps 659 mmHg 75%
    14:00 +4°C° 0 mm 2 mps 659 mmHg 78%
    15:00 +3°C° 0 mm 2 mps 660 mmHg 81%
    16:00 +2°C° 0 mm 2 mps 660 mmHg 84%
    17:00 +2°C° 0 mm 2 mps 660 mmHg 85%
    18:00 +1°C° 0 mm 2 mps 660 mmHg 87%
    19:00 +1°C° 0 mm 2 mps 660 mmHg 88%
    20:00 +1°C° 0.1 mm 2 mps 661 mmHg 88%
    21:00 +1°C° 0.1 mm 2 mps 661 mmHg 88%
    22:00 +2°C° 0.1 mm 2 mps 661 mmHg 88%
    23:00 +2°C° 0.1 mm 2 mps 661 mmHg 89%

    12 December, Thursday

    Time Temperature Precipitation Wind Pressure Humidity
    00:00 +2°C° 0.1 mm 2 mps 661 mmHg 90%
    01:00 +2°C° 0.1 mm 2 mps 661 mmHg 91%
    02:00 +2°C° 0 mm 2 mps 661 mmHg 92%
    03:00 +2°C° 0 mm 2 mps 661 mmHg 92%
    04:00 +2°C° 0 mm 2 mps 661 mmHg 92%
    05:00 +1°C° 0 mm 2 mps 661 mmHg 91%
    06:00 +1°C° 0 mm 2 mps 661 mmHg 91%
    07:00 +1°C° 0 mm 2 mps 661 mmHg 91%
    08:00 +2°C° 0 mm 2 mps 662 mmHg 88%
    09:00 +4°C° 0 mm 2 mps 662 mmHg 84%
    10:00 +5°C° 0 mm 2 mps 663 mmHg 81%
    11:00 +6°C° 0 mm 2 mps 663 mmHg 79%
    12:00 +6°C° 0 mm 2 mps 663 mmHg 77%
    13:00 +7°C° 0 mm 2 mps 663 mmHg 75%
    14:00 +7°C° 0.2 mm 1 mps 662 mmHg 79%
    15:00 +6°C° 0.2 mm 1 mps 662 mmHg 83%
    16:00 +6°C° 0.2 mm 1 mps 662 mmHg 87%
    17:00 +5°C° 0.4 mm 1 mps 661 mmHg 89%
    18:00 +4°C° 0.4 mm 2 mps 661 mmHg 90%
    19:00 +4°C° 0.4 mm 2 mps 661 mmHg 92%
    20:00 +4°C° 1 mm 2 mps 661 mmHg 93%
    21:00 +4°C° 1 mm 2 mps 660 mmHg 95%
    22:00 +4°C° 1 mm 2 mps 660 mmHg 96%
    23:00 +3°C° 1.3 mm 2 mps 660 mmHg 96%
    Show more